GAMA45 EGNH-EGNH

Flight info

Callsign GAMA45
Flight time N/A
Altitude 2000
Route VFR
Aircraft H145/L-V/N

Departure

Time 2026-04-28 09:47
Airport Blackpool Airport (EGNH)

Arrival

Time N/A
Airport Blackpool Airport (EGNH)
Time Latitude Longitude Altitude Speed Heading
2026-04-28 09:47 53.55675 -3.32501 1069 ft 131 kts 95°
2026-04-28 09:47 53.55552 -3.30978 1093 ft 132 kts 95°
2026-04-28 09:47 53.55430 -3.29454 1119 ft 132 kts 95°
2026-04-28 09:48 53.55308 -3.27929 1145 ft 132 kts 95°
2026-04-28 09:48 53.55182 -3.26397 1225 ft 134 kts 97°
2026-04-28 09:48 53.55043 -3.24849 1400 ft 134 kts 97°
2026-04-28 09:48 53.54909 -3.23321 1568 ft 134 kts 97°
2026-04-28 09:49 53.54782 -3.21764 1742 ft 135 kts 96°
2026-04-28 09:49 53.54656 -3.20204 1916 ft 135 kts 96°
2026-04-28 09:49 53.54533 -3.18628 2004 ft 133 kts 95°
2026-04-28 09:49 53.54415 -3.17101 2000 ft 133 kts 95°
2026-04-28 09:50 53.54293 -3.15556 2000 ft 133 kts 95°
2026-04-28 09:50 53.54171 -3.14011 1998 ft 133 kts 95°
2026-04-28 09:50 53.54048 -3.12466 2000 ft 133 kts 95°
2026-04-28 09:50 53.53922 -3.10924 2000 ft 133 kts 96°
2026-04-28 09:51 53.53795 -3.09380 1999 ft 133 kts 96°
2026-04-28 09:51 53.53668 -3.07846 1999 ft 132 kts 96°
2026-04-28 09:51 53.53540 -3.06302 2004 ft 133 kts 95°
2026-04-28 09:51 53.53414 -3.04768 2000 ft 133 kts 95°
2026-04-28 09:52 53.53286 -3.03233 1995 ft 133 kts 96°
2026-04-28 09:52 53.53158 -3.01696 1996 ft 133 kts 96°
2026-04-28 09:52 53.53031 -3.00163 2002 ft 132 kts 95°
2026-04-28 09:52 53.52906 -2.98710 2148 ft 127 kts 93°
2026-04-28 09:53 53.52788 -2.97380 2424 ft 114 kts 92°
2026-04-28 09:53 53.52678 -2.96045 2409 ft 112 kts 89°
2026-04-28 09:53 53.52583 -2.94753 2229 ft 112 kts 89°
2026-04-28 09:53 53.52480 -2.93462 2040 ft 110 kts 89°
2026-04-28 09:54 53.52383 -2.92188 1797 ft 111 kts 89°
2026-04-28 09:54 53.52279 -2.90910 1566 ft 112 kts 91°
2026-04-28 09:54 53.52166 -2.89625 1492 ft 112 kts 92°
2026-04-28 09:54 53.52046 -2.88324 1506 ft 111 kts 91°
2026-04-28 09:55 53.51929 -2.87034 1503 ft 112 kts 92°
2026-04-28 09:55 53.51816 -2.85737 1499 ft 114 kts 91°
2026-04-28 09:55 53.51710 -2.84438 1493 ft 113 kts 91°
2026-04-28 09:55 53.51593 -2.83127 1503 ft 112 kts 90°
2026-04-28 09:56 53.51488 -2.81835 1493 ft 113 kts 92°
2026-04-28 09:56 53.51373 -2.80522 1505 ft 113 kts 91°
2026-04-28 09:56 53.51265 -2.79221 1502 ft 112 kts 91°
2026-04-28 09:56 53.51154 -2.77933 1503 ft 113 kts 92°
2026-04-28 09:57 53.51043 -2.76633 1505 ft 111 kts 92°
2026-04-28 09:57 53.50933 -2.75348 1506 ft 111 kts 91°
2026-04-28 09:57 53.50820 -2.74056 1502 ft 112 kts 92°
2026-04-28 09:57 53.50708 -2.72770 1507 ft 111 kts 91°
2026-04-28 09:58 53.50601 -2.71502 1510 ft 111 kts 90°
2026-04-28 09:58 53.50495 -2.70222 1499 ft 114 kts 91°
2026-04-28 09:58 53.50381 -2.68915 1505 ft 112 kts 91°
2026-04-28 09:58 53.50272 -2.67641 1494 ft 112 kts 93°
2026-04-28 09:59 53.50161 -2.66349 1498 ft 112 kts 92°
2026-04-28 09:59 53.50050 -2.65077 1501 ft 109 kts 92°
2026-04-28 09:59 53.49939 -2.63803 1503 ft 112 kts 92°
2026-04-28 09:59 53.49828 -2.62527 1499 ft 112 kts 91°
2026-04-28 10:00 53.49717 -2.61236 1499 ft 111 kts 92°
2026-04-28 10:00 53.49603 -2.59926 1504 ft 112 kts 92°
2026-04-28 10:00 53.49492 -2.58654 1500 ft 112 kts 91°
2026-04-28 10:00 53.49380 -2.57355 1503 ft 113 kts 92°
2026-04-28 10:01 53.49264 -2.56035 1506 ft 114 kts 91°
2026-04-28 10:01 53.49149 -2.54723 1506 ft 113 kts 90°
2026-04-28 10:01 53.49037 -2.53440 1498 ft 111 kts 91°
2026-04-28 10:01 53.48925 -2.52164 1502 ft 111 kts 90°
2026-04-28 10:02 53.48813 -2.50880 1504 ft 112 kts 91°
2026-04-28 10:02 53.48701 -2.49603 1500 ft 111 kts 92°
2026-04-28 10:02 53.48587 -2.48312 1502 ft 113 kts 92°
2026-04-28 10:02 53.48472 -2.46994 1506 ft 114 kts 91°
2026-04-28 10:03 53.48358 -2.45703 1504 ft 110 kts 91°
2026-04-28 10:03 53.48244 -2.44416 1501 ft 113 kts 91°
2026-04-28 10:03 53.48129 -2.43112 1502 ft 113 kts 91°
2026-04-28 10:03 53.48015 -2.41824 1503 ft 111 kts 90°
2026-04-28 10:04 53.47902 -2.40550 1501 ft 113 kts 91°
2026-04-28 10:04 53.47791 -2.39262 1422 ft 110 kts 90°
2026-04-28 10:04 53.47685 -2.37996 1286 ft 109 kts 90°
2026-04-28 10:04 53.47578 -2.36724 1146 ft 111 kts 90°
2026-04-28 10:05 53.47483 -2.35597 1066 ft 82 kts 86°
2026-04-28 10:05 53.47412 -2.34761 998 ft 66 kts 87°
2026-04-28 10:05 53.47344 -2.34001 1006 ft 66 kts 88°
2026-04-28 10:05 53.47276 -2.33236 1004 ft 67 kts 89°
2026-04-28 10:06 53.47210 -2.32486 941 ft 65 kts 87°
2026-04-28 10:06 53.47143 -2.31729 782 ft 66 kts 88°
2026-04-28 10:06 53.47074 -2.30975 623 ft 65 kts 89°
2026-04-28 10:06 53.47005 -2.30203 503 ft 69 kts 90°
2026-04-28 10:07 53.46933 -2.29403 501 ft 69 kts 88°
2026-04-28 10:07 53.46862 -2.28618 503 ft 69 kts 88°
2026-04-28 10:07 53.46792 -2.27831 505 ft 67 kts 87°
2026-04-28 10:07 53.46724 -2.27072 502 ft 66 kts 89°
2026-04-28 10:08 53.46655 -2.26306 503 ft 69 kts 90°
2026-04-28 10:08 53.46583 -2.25505 504 ft 70 kts 89°
2026-04-28 10:08 53.46510 -2.24697 503 ft 70 kts 89°
2026-04-28 10:08 53.46444 -2.23918 459 ft 61 kts 88°
2026-04-28 10:09 53.46395 -2.23393 371 ft 34 kts 93°
2026-04-28 10:09 53.46343 -2.23077 318 ft 23 kts 84°
2026-04-28 10:09 53.46293 -2.22832 225 ft 18 kts 52°
2026-04-28 10:09 53.46294 -2.22782 171 ft 2 kts 333°
2026-04-28 10:10 53.46296 -2.22785 139 ft 1 kts 333°
2026-04-28 10:10 53.46298 -2.22788 136 ft 0 kts 332°
2026-04-28 10:15 53.46298 -2.22789 145 ft 1 kts 338°
2026-04-28 10:15 53.46303 -2.22840 216 ft 6 kts 36°
2026-04-28 10:15 53.46472 -2.22648 313 ft 74 kts 41°
2026-04-28 10:16 53.47000 -2.22249 540 ft 99 kts 19°
2026-04-28 10:16 53.47759 -2.22429 746 ft 120 kts 348°
2026-04-28 10:16 53.48409 -2.23311 1102 ft 128 kts 317°
2026-04-28 10:16 53.48743 -2.24702 1490 ft 132 kts 285°
2026-04-28 10:17 53.48698 -2.26204 1497 ft 131 kts 262°
2026-04-28 10:17 53.48537 -2.27726 1506 ft 134 kts 259°
2026-04-28 10:17 53.48360 -2.29272 1503 ft 135 kts 259°
2026-04-28 10:17 53.48166 -2.30802 1499 ft 135 kts 258°
2026-04-28 10:18 53.47951 -2.32333 1503 ft 135 kts 257°
2026-04-28 10:18 53.47710 -2.33838 1501 ft 134 kts 253°
2026-04-28 10:18 53.47437 -2.35344 1501 ft 134 kts 252°
2026-04-28 10:18 53.47138 -2.36822 1501 ft 134 kts 249°
2026-04-28 10:19 53.46813 -2.38275 1501 ft 132 kts 246°
2026-04-28 10:19 53.46508 -2.39721 1379 ft 124 kts 267°
2026-04-28 10:19 53.46669 -2.40825 879 ft 76 kts 332°
2026-04-28 10:19 53.46959 -2.40562 494 ft 56 kts 59°
2026-04-28 10:20 53.47073 -2.40002 326 ft 47 kts 72°
2026-04-28 10:20 53.47111 -2.39516 200 ft 38 kts 98°
2026-04-28 10:20 53.46995 -2.39333 140 ft 35 kts 169°
2026-04-28 10:20 53.46798 -2.39331 97 ft 9 kts 66°
2026-04-28 10:21 53.46789 -2.39315 75 ft 1 kts 37°
2026-04-28 10:21 53.46790 -2.39316 70 ft 0 kts 39°
2026-04-28 11:06 53.46897 -2.39288 123 ft 41 kts 20°
2026-04-28 11:07 53.47351 -2.39024 212 ft 91 kts 28°
2026-04-28 11:07 53.47934 -2.38645 481 ft 96 kts 18°
2026-04-28 11:07 53.48665 -2.38849 491 ft 118 kts 341°
2026-04-28 11:07 53.49263 -2.39796 560 ft 122 kts 304°
2026-04-28 11:08 53.49456 -2.41200 609 ft 127 kts 273°
2026-04-28 11:08 53.49519 -2.42670 662 ft 126 kts 281°
2026-04-28 11:08 53.49795 -2.44031 739 ft 121 kts 296°
2026-04-28 11:08 53.50210 -2.45236 794 ft 118 kts 304°
2026-04-28 11:09 53.50682 -2.46354 850 ft 116 kts 309°
2026-04-28 11:09 53.51172 -2.47427 895 ft 117 kts 309°
2026-04-28 11:09 53.51673 -2.48483 963 ft 115 kts 308°
2026-04-28 11:09 53.52172 -2.49526 1187 ft 113 kts 309°
2026-04-28 11:10 53.52655 -2.50536 1439 ft 111 kts 310°
2026-04-28 11:10 53.53140 -2.51548 1668 ft 110 kts 310°
2026-04-28 11:10 53.53621 -2.52546 1902 ft 110 kts 311°
2026-04-28 11:10 53.54091 -2.53532 2006 ft 108 kts 309°
2026-04-28 11:11 53.54551 -2.54527 1994 ft 110 kts 310°
2026-04-28 11:11 53.55018 -2.55534 1990 ft 112 kts 310°
2026-04-28 11:11 53.55524 -2.56601 2009 ft 118 kts 309°
2026-04-28 11:11 53.56020 -2.57677 1999 ft 117 kts 309°
2026-04-28 11:12 53.56521 -2.58741 1999 ft 115 kts 309°
2026-04-28 11:12 53.56850 -2.59437 1999 ft 116 kts 309°
2026-04-28 11:12 53.57352 -2.60501 1998 ft 116 kts 309°
2026-04-28 11:12 53.57859 -2.61578 2005 ft 117 kts 308°
2026-04-28 11:13 53.58365 -2.62651 2001 ft 118 kts 308°
2026-04-28 11:13 53.58875 -2.63735 1998 ft 119 kts 310°
2026-04-28 11:13 53.59387 -2.64822 2002 ft 118 kts 309°
2026-04-28 11:13 53.59897 -2.65905 1997 ft 118 kts 309°
2026-04-28 11:14 53.59965 -2.66049 1996 ft 119 kts 309°